Regional Weather Roundup
Issued by NWS Sioux Falls, SD

Home | Current Version | Previous Version | Graphics & Text | Print | Product List | Glossary On
Versions: 1 2 3 4 5 6 7 8 9 10 11 12 13 14 15 16 17 18 19 20 21 22 23 24 25 26 27 28 29 30 31 32 33 34 35 36 37 38 39 40 41 42 43 44 45 46 47 48 49 50
429
ASUS43 KFSD 171410
RWRFSD

WEATHER ROUNDUP FOR SE SOUTH DAKOTA/SW MINNESOTA/NW IOWA
NATIONAL WEATHER SERVICE SIOUX FALLS SD
800 AM CST TUE JAN 17 2017

NOTE: "FAIR" INDICATES FEW OR NO CLOUDS BELOW 12,000 FEET WITH NO
SIGNIFICANT WEATHER AND OR OBSTRUCTIONS TO VISIBILITY.


SDZ038>040-050-052>070-171500-
SOUTHEAST SOUTH DAKOTA

CITY           SKY/WX    TMP DP  RH WIND       PRES   REMARKS
BROOKINGS      CLOUDY     3  -1  83 CALM      30.00R
CHAMBERLAIN    CLOUDY    14  11  89 W6        30.04F WCI   5
HURON          CLOUDY     2   0  91 CALM      30.03F
MADISON          N/A     10  10 100 NW10        N/A  WCI  -3
MITCHELL       CLOUDY    10   8  92 W6        30.06S WCI   0
SIOUX FALLS    CLOUDY    11   8  88 W5        30.03R WCI   3
WINNER         FAIR      19  14  81 SW7       30.03F WCI  10
YANKTON        CLOUDY    16  10  79 CALM      30.05F
$$

MNZ071-072-080-081-089-090-097-098-171500-
SOUTHWEST MINNESOTA

CITY           SKY/WX    TMP DP  RH WIND       PRES   REMARKS
FAIRMONT       FOG       27  25  93 NW14      29.97S VSB 3/4 WCI  15
JACKSON        CLOUDY    25  25 100 NW6       29.97S FOG     WCI  18
LUVERNE        CLOUDY    18  16  93 NW8       30.01R FOG     WCI   7
MARSHALL       CLOUDY    19  14  81 W7        30.01R WCI  10
MONTEVIDEO     CLOUDY    16  12  86 CALM      30.03S
PIPESTONE      FOG       14  12  92 CALM      29.98S VSB 3/4
REDWOOD FALLS  CLOUDY    22  18  85 NW7       30.00R WCI  13
TRACY          CLOUDY    23  19  85 NW8       30.00R WCI  14
WINDOM         CLOUDY    23  21  93 NW5       29.98R WCI  17
WORTHINGTON    FOG       27  25  93 NW8       29.99R VSB 1   WCI  18
$$

IAZ001>003-012>014-020>022-031-032-NEZ013-014-SDZ071-171500-
NORTHWEST IOWA

CITY           SKY/WX    TMP DP  RH WIND       PRES   REMARKS
CHEROKEE       CLOUDY    28  28 100 CALM      30.00S
DENISON        CLOUDY    27  27 100 W8        29.99S FOG     WCI  18
ESTHERVILLE    FOG       26  26 100 NW15      29.96S VSB 1   WCI  14
LE MARS        CLOUDY    21  18  86 NW6       30.05R WCI  14
ORANGE CITY    CLOUDY    21  21 100 NW7       30.01R WCI  13
SHELDON        CLOUDY    27  27 100 NW9       29.98R FOG     WCI  17
SIOUX CITY     CLOUDY    20  15  81 NW12      30.05R WCI   8
SPENCER        CLOUDY    29  28  96 NW7       29.98S WCI  22
STORM LAKE     CLOUDY    28  28 100 NW13      29.97S FOG     WCI  18
$$

ABBREVIATIONS USED IN REMARKS
   TC - TEMPERATURE IN CELSIUS
  WCI - WIND CHILL INDEX
   HX - HEAT INDEX
  VSB - VISIBILITY





USA.gov is the U.S. government's official web portal to all federal, state and local government web resources and services.